Bellingham International Airport
KBLI : now visible

Airfield :











YOU CAN JOIN US ON...

 
LOGIN :

Register | Disclaimer

   EN    FR    IT 

 









Legend :    VFR   Marginal VFR   IFR   Intensive IFR   Very Intensive IFR
Visi :
Ceiling :
>= 8 km
>= 3000ft
5 to 8 km
1000 to 3000 ft
1500m to 5 km
500 to 1000 ft
800 to 1500m
200 to 500 ft
< 800m
< 200 ft
Symbols :   Thunderstorms  Fog  Heavy snow  Heavy precipitations  Wind > 20 kt






- Airport Elevation : 170 ft
- IATA code : BLI


KBLI - Bellingham International

CURRENT METAR :
  • 082053Z VRB04KT 10SM SCT034 07/01 A2991 RMK AO2 SLP136 T00670006 51009

EXPIRED METARs :
  • 081953Z VRB06KT 10SM SCT028 07/02 A2990 RMK AO2 SLP133 T00720017
  • 081853Z VRB03KT 10SM FEW026 SCT040 BKN055 07/02 A2990 RMK AO2 SLP132 T00720022

TAF KBLI
Valid from the 08 at 18:00 until the 09 at 18:00 UTC


081823Z 0818/0918 19005KT P6SM SCT040 BKN050
FM082000 20010G20KT P6SM BKN050
FM090300 17006KT P6SM OVC050
FM091100 18008KT P6SM OVC030
KZSE FIR / North America



MET'MAP, your aeronautical weather chart ! - Copyright ORBIFLY December 2007 - Disclaimer

ORBIFLY MET'MAP TEAM :

Programming & Development : Alexandra Zaïnal
Concept & original design : Baudouin d'Aumeries
Assistance for programming : Marc-Olivier Méhu
Technical & hardware support : Manuel Goepfert

Contact : metmap@orbifly.com




SOURCES & CREDITS :

   NOAA       Earth
Advisory